Station Historical Data
Daily Summary for July 1, 2012 Units:  Metric    English   Both
« Previous Day
Next Day »
Daily Weekly Monthly Yearly Custom
  High: Low: Average:
Temperature: 38.3 °C 24 °C 31.3 °C
Dew Point: 23.3 °C 19.2 °C 20.9 °C
Humidity: 81% 34% 56%
Wind Speed: 17.7km/h 0km/h 4km/h
Wind Gust: 20.9km/h - -
Wind- - WSW
Pressure: 1014.4 hPa 1010.4 hPa -
Precipitation: 0 mm    
Historical Graphs
 
 
Tabular Data for July 1, 2012
Time Temperature Dew Point Pressure Wind Wind Speed Wind Gust Humidity Rainfall Rate (Hourly) Conditions
00:00 28.3 °C 19.5 °C 1010.7 hPa Calm     59% 0 mm
00:05 28.1 °C 19.8 °C 1010.7 hPa Calm     61% 0 mm
00:10 27.8 °C 19.6 °C 1010.7 hPa Calm     61% 0 mm
00:15 27.6 °C 19.4 °C 1010.7 hPa Calm     61% 0 mm
00:20 27.3 °C 19.4 °C 1010.7 hPa Calm     62% 0 mm
00:25 27.2 °C 19.3 °C 1010.7 hPa Calm     62% 0 mm
00:31 27.6 °C 19.4 °C 1010.7 hPa Calm     61% 0 mm
00:36 27.9 °C 19.4 °C 1010.7 hPa Calm     60% 0 mm
00:41 27.8 °C 19.6 °C 1010.7 hPa Calm     61% 0 mm
00:46 27.7 °C 19.5 °C 1010.7 hPa Calm     61% 0 mm
00:51 27.4 °C 19.3 °C 1010.7 hPa Calm     61% 0 mm
00:56 27.3 °C 19.6 °C 1010.7 hPa Calm     63% 0 mm
01:01 27.2 °C 19.6 °C 1010.7 hPa Calm     63% 0 mm
01:06 27.2 °C 19.6 °C 1010.7 hPa Calm     63% 0 mm
01:11 27.2 °C 19.6 °C 1010.7 hPa Calm     63% 0 mm
01:16 27.1 °C 19.7 °C 1010.7 hPa Calm     64% 0 mm
01:21 27 °C 19.9 °C 1010.7 hPa Calm     65% 0 mm
01:26 26.8 °C 19.7 °C 1010.7 hPa Calm     65% 0 mm
01:31 26.7 °C 19.6 °C 1010.7 hPa Calm     65% 0 mm
01:36 26.7 °C 19.6 °C 1010.7 hPa Calm     65% 0 mm
01:41 26.5 °C 19.6 °C 1010.7 hPa Calm     66% 0 mm
01:46 26.2 °C 19.6 °C 1010.7 hPa Calm     67% 0 mm
01:51 26 °C 19.7 °C 1010.7 hPa Calm     68% 0 mm
01:56 25.9 °C 19.8 °C 1010.7 hPa Calm     69% 0 mm
02:01 26 °C 19.7 °C 1010.7 hPa Calm     68% 0 mm
02:06 26.1 °C 19.9 °C 1010.7 hPa Calm     69% 0 mm
02:11 26.2 °C 19.8 °C 1010.7 hPa Calm     68% 0 mm
02:16 26.3 °C 19.9 °C 1010.7 hPa Calm     68% 0 mm
02:21 26.4 °C 19.8 °C 1010.7 hPa Calm     67% 0 mm
02:26 26.5 °C 19.9 °C 1010.7 hPa Calm     67% 0 mm
02:31 26.6 °C 19.7 °C 1010.7 hPa Calm     66% 0 mm
02:36 26.6 °C 19.9 °C 1010.7 hPa Calm     67% 0 mm
02:41 26.3 °C 19.7 °C 1010.7 hPa Calm     67% 0 mm
02:46 26.2 °C 19.8 °C 1010.7 hPa Calm     68% 0 mm
02:51 26.2 °C 19.6 °C 1010.7 hPa Calm     67% 0 mm
02:56 26.2 °C 19.8 °C 1010.7 hPa Calm     68% 0 mm
03:01 26.3 °C 19.7 °C 1010.4 hPa Calm     67% 0 mm
03:06 26.1 °C 19.5 °C 1010.7 hPa Calm     67% 0 mm
03:11 25.8 °C 19.5 °C 1010.7 hPa Calm     68% 0 mm
03:16 25.6 °C 19.9 °C 1010.7 hPa Calm     71% 0 mm
03:21 25.3 °C 19.7 °C 1010.7 hPa Calm     71% 0 mm
03:26 25.1 °C 19.7 °C 1010.7 hPa Calm     72% 0 mm
03:31 24.9 °C 19.7 °C 1010.7 hPa Calm     73% 0 mm
03:36 24.9 °C 19.7 °C 1010.7 hPa Calm     73% 0 mm
03:41 24.8 °C 19.8 °C 1010.7 hPa Calm     74% 0 mm
03:46 24.8 °C 19.8 °C 1011.1 hPa Calm     74% 0 mm
03:51 24.7 °C 19.7 °C 1011.1 hPa Calm     74% 0 mm
03:56 24.6 °C 20.1 °C 1011.1 hPa Calm     76% 0 mm
04:01 24.6 °C 20.1 °C 1011.1 hPa Calm     76% 0 mm
04:06 24.6 °C 19.9 °C 1011.1 hPa Calm     75% 0 mm
04:12 24.5 °C 19.8 °C 1011.1 hPa Calm     75% 0 mm
04:17 24.4 °C 19.9 °C 1011.1 hPa Calm     76% 0 mm
04:22 24.4 °C 19.9 °C 1011.1 hPa Calm     76% 0 mm
04:27 24.4 °C 19.9 °C 1011.1 hPa Calm     76% 0 mm
04:32 24.3 °C 20.1 °C 1011.1 hPa Calm     77% 0 mm
04:37 24.2 °C 20.1 °C 1011.1 hPa Calm     78% 0 mm
04:42 24.2 °C 20.3 °C 1011.4 hPa Calm     79% 0 mm
04:47 24.1 °C 20.2 °C 1011.1 hPa Calm     79% 0 mm
04:52 24 °C 20.3 °C 1011.4 hPa Calm     80% 0 mm
04:57 24.1 °C 20.6 °C 1011.4 hPa Calm     81% 0 mm
05:02 24.1 °C 20.4 °C 1011.4 hPa Calm     80% 0 mm
05:07 24.3 °C 20.4 °C 1011.4 hPa NNW 3.2 km/h 3.2 km/h 79% 0 mm
05:12 24.5 °C 20.2 °C 1011.4 hPa NNW 1.6 km/h 3.2 km/h 77% 0 mm
05:17 24.7 °C 20.2 °C 1011.4 hPa NNW 3.2 km/h 4.8 km/h 76% 0 mm
05:22 25 °C 20.3 °C 1011.4 hPa NNW 3.2 km/h 4.8 km/h 75% 0 mm
05:27 25.4 °C 20.4 °C 1011.4 hPa NW 3.2 km/h 4.8 km/h 74% 0 mm
05:32 25.6 °C 20.4 °C 1011.7 hPa NW 4.8 km/h 6.4 km/h 73% 0 mm
05:37 25.8 °C 20.4 °C 1011.4 hPa NNW 3.2 km/h 6.4 km/h 72% 0 mm
05:42 25.9 °C 20.4 °C 1011.7 hPa NW 3.2 km/h 6.4 km/h 72% 0 mm
05:47 26 °C 20.3 °C 1011.7 hPa NW 4.8 km/h 6.4 km/h 71% 0 mm
05:52 26.1 °C 20.4 °C 1011.7 hPa NNW 3.2 km/h 6.4 km/h 71% 0 mm
05:57 26.2 °C 20.5 °C 1011.7 hPa NW 3.2 km/h 6.4 km/h 71% 0 mm
06:03 26.2 °C 20.5 °C 1011.7 hPa NNW 3.2 km/h 6.4 km/h 71% 0 mm
06:08 26.2 °C 20.5 °C 1011.7 hPa NW 3.2 km/h 4.8 km/h 71% 0 mm
06:13 26.1 °C 20.4 °C 1011.7 hPa NW 1.6 km/h 3.2 km/h 71% 0 mm
06:18 26.1 °C 20.4 °C 1011.7 hPa NW 3.2 km/h 4.8 km/h 71% 0 mm
06:23 26.1 °C 20.4 °C 1012.1 hPa NW 1.6 km/h 3.2 km/h 71% 0 mm
06:28 26.1 °C 20.4 °C 1012.1 hPa NW 3.2 km/h 4.8 km/h 71% 0 mm
06:33 26.2 °C 20.5 °C 1012.1 hPa NW 1.6 km/h 4.8 km/h 71% 0 mm
06:38 26.1 °C 20.4 °C 1012.1 hPa NW 1.6 km/h 3.2 km/h 71% 0 mm
06:43 26.1 °C 20.4 °C 1012.1 hPa NW 1.6 km/h 3.2 km/h 71% 0 mm
06:48 26.1 °C 20.4 °C 1012.1 hPa NNW 3.2 km/h 3.2 km/h 71% 0 mm
06:53 26 °C 20.3 °C 1012.1 hPa North 3.2 km/h 3.2 km/h 71% 0 mm
06:58 26 °C 20.3 °C 1012.4 hPa Calm   3.2 km/h 71% 0 mm
07:03 25.9 °C 20.4 °C 1012.4 hPa Calm     72% 0 mm
07:08 25.9 °C 20.5 °C 1012.4 hPa NNW 1.6 km/h 1.6 km/h 72% 0 mm
07:13 26 °C 20.3 °C 1012.4 hPa Calm     71% 0 mm
07:18 26.1 °C 20.4 °C 1012.4 hPa Calm   1.6 km/h 71% 0 mm
07:23 26.2 °C 20.5 °C 1012.4 hPa Calm   1.6 km/h 71% 0 mm
07:28 26.3 °C 20.6 °C 1012.4 hPa Calm     71% 0 mm
07:33 26.3 °C 20.6 °C 1012.8 hPa Calm     71% 0 mm
07:38 26.3 °C 20.7 °C 1012.8 hPa Calm     71% 0 mm
07:43 26.6 °C 20.9 °C 1012.8 hPa Calm     71% 0 mm
07:48 26.8 °C 21.3 °C 1012.8 hPa Calm     72% 0 mm
07:53 27.2 °C 21.7 °C 1012.8 hPa Calm     72% 0 mm
07:58 27.4 °C 21.9 °C 1012.8 hPa Calm     72% 0 mm
08:03 27.7 °C 21.9 °C 1012.8 hPa Calm     71% 0 mm
08:08 27.5 °C 21.3 °C 1013.1 hPa NNW 1.6 km/h 1.6 km/h 69% 0 mm
08:13 27.4 °C 21.4 °C 1013.1 hPa Calm   1.6 km/h 70% 0 mm
08:18 27.7 °C 21.9 °C 1013.1 hPa Calm     71% 0 mm
08:23 27.9 °C 21.7 °C 1013.1 hPa NNW 1.6 km/h 1.6 km/h 69% 0 mm
08:28 28 °C 21.6 °C 1013.1 hPa WNW 1.6 km/h 3.2 km/h 68% 0 mm
08:33 28.2 °C 21.4 °C 1013.1 hPa WNW 1.6 km/h 3.2 km/h 67% 0 mm
08:38 28.3 °C 21.6 °C 1013.1 hPa WNW 3.2 km/h 3.2 km/h 67% 0 mm
08:43 28.6 °C 21.8 °C 1013.1 hPa WNW 3.2 km/h 4.8 km/h 67% 0 mm
08:48 28.7 °C 22 °C 1013.1 hPa WNW 1.6 km/h 4.8 km/h 67% 0 mm
08:53 28.9 °C 21.9 °C 1013.4 hPa WNW 4.8 km/h 6.4 km/h 66% 0 mm
08:58 29.1 °C 22.1 °C 1013.4 hPa WNW 6.4 km/h 8 km/h 66% 0 mm
09:03 29.3 °C 22.3 °C 1013.4 hPa WNW 4.8 km/h 6.4 km/h 66% 0 mm
09:08 29.6 °C 22.3 °C 1013.8 hPa NW 3.2 km/h 6.4 km/h 65% 0 mm
09:13 29.8 °C 22.3 °C 1013.8 hPa WNW 4.8 km/h 11.3 km/h 64% 0 mm
09:18 30.1 °C 22.1 °C 1013.8 hPa WNW 8 km/h 9.7 km/h 62% 0 mm
09:23 30.3 °C 21.9 °C 1013.8 hPa West 8 km/h 9.7 km/h 61% 0 mm
09:28 30.3 °C 22 °C 1013.8 hPa WNW 6.4 km/h 9.7 km/h 61% 0 mm
09:33 30.4 °C 22.1 °C 1013.8 hPa WNW 4.8 km/h 12.9 km/h 61% 0 mm
09:38 30.6 °C 22.5 °C 1013.8 hPa WNW 6.4 km/h 9.7 km/h 62% 0 mm
09:43 30.7 °C 22.1 °C 1014.1 hPa WNW 6.4 km/h 11.3 km/h 60% 0 mm
09:48 30.8 °C 22.2 °C 1014.1 hPa NW 3.2 km/h 12.9 km/h 60% 0 mm
09:53 31.1 °C 22.4 °C 1014.1 hPa WNW 6.4 km/h 11.3 km/h 60% 0 mm
09:58 31.2 °C 22.5 °C 1014.1 hPa WNW 6.4 km/h 11.3 km/h 60% 0 mm
10:04 31.2 °C 22.8 °C 1014.1 hPa NW 11.3 km/h 11.3 km/h 61% 0 mm
10:09 31.2 °C 22.6 °C 1014.1 hPa WNW 6.4 km/h 12.9 km/h 60% 0 mm
10:14 31.4 °C 22.7 °C 1014.1 hPa WNW 6.4 km/h 8 km/h 60% 0 mm
10:19 31.6 °C 22.6 °C 1014.1 hPa NW 6.4 km/h 11.3 km/h 59% 0 mm
10:24 31.7 °C 23 °C 1014.1 hPa West 8 km/h 11.3 km/h 60% 0 mm
10:29 31.8 °C 23.3 °C 1014.1 hPa WNW 6.4 km/h 9.7 km/h 61% 0 mm
10:34 31.8 °C 22.5 °C 1014.1 hPa West 8 km/h 11.3 km/h 58% 0 mm
10:39 32 °C 23 °C 1014.1 hPa WNW 4.8 km/h 11.3 km/h 59% 0 mm
10:44 32.2 °C 22.9 °C 1014.1 hPa WNW 3.2 km/h 8 km/h 58% 0 mm
10:49 32.3 °C 22.7 °C 1014.1 hPa WNW 6.4 km/h 12.9 km/h 57% 0 mm
10:54 32.4 °C 23.1 °C 1014.1 hPa WNW 9.7 km/h 11.3 km/h 58% 0 mm
10:59 32.6 °C 22.7 °C 1014.1 hPa NW 6.4 km/h 9.7 km/h 56% 0 mm
11:04 32.6 °C 23 °C 1014.1 hPa NW 6.4 km/h 11.3 km/h 57% 0 mm
11:09 32.8 °C 23.2 °C 1014.1 hPa NW 9.7 km/h 11.3 km/h 57% 0 mm
11:14 32.8 °C 22.6 °C 1014.1 hPa West 3.2 km/h 14.5 km/h 55% 0 mm
11:19 32.9 °C 22.4 °C 1014.1 hPa NW 9.7 km/h 11.3 km/h 54% 0 mm
11:24 33.3 °C 23 °C 1014.4 hPa WNW 3.2 km/h 8 km/h 55% 0 mm
11:29 33.3 °C 22.8 °C 1014.4 hPa NW 12.9 km/h 14.5 km/h 54% 0 mm
11:34 33.3 °C 22.1 °C 1014.4 hPa WNW 11.3 km/h 14.5 km/h 52% 0 mm
11:39 33.4 °C 22.6 °C 1014.4 hPa WNW 8 km/h 9.7 km/h 53% 0 mm
11:44 33.5 °C 22.6 °C 1014.4 hPa NW 11.3 km/h 12.9 km/h 53% 0 mm
11:49 33.7 °C 21.8 °C 1014.4 hPa West 12.9 km/h 19.3 km/h 50% 0 mm
11:54 33.9 °C 22.3 °C 1014.4 hPa West 9.7 km/h 12.9 km/h 51% 0 mm
11:59 34.1 °C 21.9 °C 1014.4 hPa NW 9.7 km/h 12.9 km/h 49% 0 mm
12:04 34.3 °C 22.1 °C 1014.4 hPa WNW 9.7 km/h 9.7 km/h 49% 0 mm
12:09 34.3 °C 22.1 °C 1014.4 hPa WNW 1.6 km/h 8 km/h 49% 0 mm
12:14 34.5 °C 21.9 °C 1014.4 hPa WNW 6.4 km/h 16.1 km/h 48% 0 mm
12:19 34.6 °C 22 °C 1014.4 hPa NW 6.4 km/h 9.7 km/h 48% 0 mm
12:24 34.9 °C 21.6 °C 1014.4 hPa NNE 3.2 km/h 12.9 km/h 46% 0 mm
12:29 35.1 °C 21.4 °C 1014.4 hPa WNW 6.4 km/h 9.7 km/h 45% 0 mm
12:34 35.1 °C 21.3 °C 1014.4 hPa WNW 4.8 km/h 9.7 km/h 45% 0 mm
12:39 35.2 °C 21.8 °C 1014.4 hPa WNW 3.2 km/h 8 km/h 46% 0 mm
12:44 35.6 °C 21.4 °C 1014.1 hPa NW 1.6 km/h 4.8 km/h 44% 0 mm
12:49 35.6 °C 21.8 °C 1014.1 hPa Calm   6.4 km/h 45% 0 mm
12:54 35.4 °C 20.9 °C 1014.1 hPa NNE 3.2 km/h 11.3 km/h 43% 0 mm
12:59 35.7 °C 21.6 °C 1014.1 hPa SE 4.8 km/h 4.8 km/h 44% 0 mm
13:04 36.5 °C 21.9 °C 1014.1 hPa NW 3.2 km/h 4.8 km/h 43% 0 mm
13:09 36 °C 20.7 °C 1014.1 hPa WNW 6.4 km/h 9.7 km/h 41% 0 mm
13:14 35.9 °C 21.3 °C 1014.1 hPa North 8 km/h 17.7 km/h 43% 0 mm
13:19 36.1 °C 21.6 °C 1014.1 hPa NE 8 km/h 8 km/h 43% 0 mm
13:24 36.1 °C 21.6 °C 1013.8 hPa ESE 1.6 km/h 4.8 km/h 43% 0 mm
13:29 36.4 °C 21.4 °C 1013.8 hPa SW 12.9 km/h 14.5 km/h 42% 0 mm
13:34 36.2 °C 21.3 °C 1013.8 hPa WSW 8 km/h 12.9 km/h 42% 0 mm
13:39 36.3 °C 20.9 °C 1013.8 hPa South 4.8 km/h 8 km/h 41% 0 mm
13:45 36.6 °C 21.6 °C 1013.8 hPa SW 4.8 km/h 11.3 km/h 42% 0 mm
13:50 36.5 °C 21.1 °C 1013.8 hPa SE 4.8 km/h 11.3 km/h 41% 0 mm
13:55 36.7 °C 21.3 °C 1013.8 hPa SW 8 km/h 11.3 km/h 41% 0 mm
14:00 36.8 °C 21 °C 1013.8 hPa WSW 11.3 km/h 12.9 km/h 40% 0 mm
14:05 37.3 °C 21 °C 1013.8 hPa SSW 4.8 km/h 9.7 km/h 39% 0 mm
14:10 37.3 °C 21.5 °C 1013.4 hPa WSW 14.5 km/h 14.5 km/h 40% 0 mm
14:15 36.9 °C 21.1 °C 1013.4 hPa SE 3.2 km/h 12.9 km/h 40% 0 mm
14:20 37.1 °C 21.2 °C 1013.4 hPa SSE 4.8 km/h 14.5 km/h 40% 0 mm
14:25 37.1 °C 21.2 °C 1013.4 hPa WSW 17.7 km/h 17.7 km/h 40% 0 mm
14:30 36.7 °C 20.4 °C 1013.4 hPa SW 8 km/h 16.1 km/h 39% 0 mm
14:35 36.7 °C 20.1 °C 1013.4 hPa WSW 16.1 km/h 16.1 km/h 38% 0 mm
14:40 36.8 °C 20.6 °C 1013.4 hPa South 9.7 km/h 16.1 km/h 39% 0 mm
14:45 37.1 °C 20.4 °C 1013.1 hPa SW 8 km/h 17.7 km/h 38% 0 mm
14:50 37.2 °C 21.4 °C 1013.1 hPa WSW 8 km/h 12.9 km/h 40% 0 mm
14:55 37.3 °C 20.6 °C 1013.1 hPa SSE 6.4 km/h 12.9 km/h 38% 0 mm
15:00 37.6 °C 21.3 °C 1013.1 hPa WSW 16.1 km/h 17.7 km/h 39% 0 mm
15:05 37.6 °C 20.4 °C 1013.1 hPa SW 4.8 km/h 8 km/h 37% 0 mm
15:10 37.7 °C 20.6 °C 1013.1 hPa SSW 11.3 km/h 19.3 km/h 37% 0 mm
15:15 37.6 °C 20.4 °C 1013.1 hPa ESE 3.2 km/h 14.5 km/h 37% 0 mm
15:20 37.4 °C 20.7 °C 1012.8 hPa SW 6.4 km/h 6.4 km/h 38% 0 mm
15:25 37.5 °C 20.3 °C 1013.1 hPa SSE 9.7 km/h 12.9 km/h 37% 0 mm
15:30 37.7 °C 20.9 °C 1012.8 hPa SSW 6.4 km/h 8 km/h 38% 0 mm
15:35 37.4 °C 20.7 °C 1012.8 hPa SW 1.6 km/h 8 km/h 38% 0 mm
15:40 37.2 °C 20.1 °C 1012.8 hPa SSW 8 km/h 20.9 km/h 37% 0 mm
15:45 37.3 °C 20.2 °C 1012.8 hPa SSE 11.3 km/h 11.3 km/h 37% 0 mm
15:50 37.2 °C 20.9 °C 1012.4 hPa SE 11.3 km/h 12.9 km/h 39% 0 mm
15:55 37.3 °C 20.2 °C 1012.4 hPa SSE 11.3 km/h 17.7 km/h 37% 0 mm
16:00 37.3 °C 20.2 °C 1012.4 hPa SW 4.8 km/h 6.4 km/h 37% 0 mm
16:05 37.5 °C 19.9 °C 1012.4 hPa SW 12.9 km/h 17.7 km/h 36% 0 mm
16:10 37.6 °C 20.4 °C 1012.4 hPa SE 8 km/h 9.7 km/h 37% 0 mm
16:16 37.7 °C 19.7 °C 1012.4 hPa SE 8 km/h 12.9 km/h 35% 0 mm
16:21 37.8 °C 19.7 °C 1012.1 hPa SSW 4.8 km/h 8 km/h 35% 0 mm
16:26 37.6 °C 19.9 °C 1012.1 hPa South 4.8 km/h 8 km/h 36% 0 mm
16:31 37.4 °C 19.9 °C 1012.1 hPa SSW 4.8 km/h 14.5 km/h 36% 0 mm
16:36 37.9 °C 20.7 °C 1012.1 hPa SW 6.4 km/h 12.9 km/h 37% 0 mm
16:41 38.1 °C 20.4 °C 1012.1 hPa WSW 17.7 km/h 17.7 km/h 36% 0 mm
16:46 38 °C 19.9 °C 1012.1 hPa SW 4.8 km/h 12.9 km/h 35% 0 mm
16:51 38.1 °C 20.4 °C 1011.7 hPa SSW 9.7 km/h 14.5 km/h 36% 0 mm
16:56 38.3 °C 20.2 °C 1011.7 hPa West 4.8 km/h 9.7 km/h 35% 0 mm
17:01 38.1 °C 19.5 °C 1011.7 hPa WNW 6.4 km/h 16.1 km/h 34% 0 mm
17:06 37.8 °C 19.7 °C 1011.7 hPa WSW 8 km/h 11.3 km/h 35% 0 mm
17:11 37.8 °C 19.7 °C 1011.7 hPa WNW 6.4 km/h 11.3 km/h 35% 0 mm
17:16 37.8 °C 20.2 °C 1011.7 hPa WSW 6.4 km/h 12.9 km/h 36% 0 mm
17:21 37.8 °C 19.2 °C 1011.4 hPa WNW 6.4 km/h 12.9 km/h 34% 0 mm
17:26 37.5 °C 19.9 °C 1011.4 hPa West 6.4 km/h 12.9 km/h 36% 0 mm
17:31 37.6 °C 20.4 °C 1011.4 hPa West 4.8 km/h 8 km/h 37% 0 mm
17:36 37.9 °C 20.3 °C 1011.1 hPa West 9.7 km/h 11.3 km/h 36% 0 mm
17:41 37.7 °C 20.1 °C 1011.1 hPa West 3.2 km/h 8 km/h 36% 0 mm
17:46 37.7 °C 20.6 °C 1011.1 hPa SW 12.9 km/h 14.5 km/h 37% 0 mm
17:51 37.6 °C 20 °C 1011.1 hPa SW 14.5 km/h 17.7 km/h 36% 0 mm
17:56 37.3 °C 19.8 °C 1011.1 hPa SSW 6.4 km/h 12.9 km/h 36% 0 mm
18:01 37.6 °C 20.4 °C 1011.1 hPa SW 8 km/h 14.5 km/h 37% 0 mm
18:06 37.3 °C 20.2 °C 1010.7 hPa WNW 6.4 km/h 12.9 km/h 37% 0 mm
18:11 36.8 °C 20.6 °C 1010.7 hPa West 8 km/h 16.1 km/h 39% 0 mm
18:16 36.5 °C 20.3 °C 1010.7 hPa West 4.8 km/h 12.9 km/h 39% 0 mm
18:21 36.6 °C 20.8 °C 1010.7 hPa West 6.4 km/h 11.3 km/h 40% 0 mm
18:26 36.8 °C 21 °C 1010.7 hPa West 11.3 km/h 11.3 km/h 40% 0 mm
18:31 36.7 °C 20.4 °C 1010.7 hPa WNW 12.9 km/h 14.5 km/h 39% 0 mm
18:36 36.6 °C 21.2 °C 1010.7 hPa WNW 11.3 km/h 12.9 km/h 41% 0 mm
18:41 36.6 °C 20.8 °C 1010.7 hPa West 6.4 km/h 11.3 km/h 40% 0 mm
18:46 36.7 °C 20.9 °C 1010.7 hPa West 8 km/h 11.3 km/h 40% 0 mm
18:51 36.6 °C 20.8 °C 1010.7 hPa WNW 6.4 km/h 14.5 km/h 40% 0 mm
18:56 36.6 °C 20.8 °C 1010.7 hPa West 8 km/h 8 km/h 40% 0 mm
19:01 36.6 °C 20.8 °C 1010.7 hPa WSW 8 km/h 12.9 km/h 40% 0 mm
19:06 36.6 °C 20.8 °C 1010.7 hPa WNW 8 km/h 11.3 km/h 40% 0 mm
19:11 36.5 °C 21.1 °C 1010.7 hPa WNW 4.8 km/h 8 km/h 41% 0 mm
19:16 36.4 °C 21.1 °C 1010.7 hPa WNW 6.4 km/h 9.7 km/h 41% 0 mm
19:21 36.3 °C 20.9 °C 1010.7 hPa WNW 6.4 km/h 12.9 km/h 41% 0 mm
19:26 36.2 °C 20.8 °C 1010.7 hPa WSW 6.4 km/h 9.7 km/h 41% 0 mm
19:32 36.1 °C 21.2 °C 1010.7 hPa West 8 km/h 9.7 km/h 42% 0 mm
19:37 36 °C 21.1 °C 1010.7 hPa West 4.8 km/h 9.7 km/h 42% 0 mm
19:42 36 °C 21.4 °C 1010.7 hPa WSW 6.4 km/h 8 km/h 43% 0 mm
19:47 35.9 °C 21 °C 1011.1 hPa West 8 km/h 12.9 km/h 42% 0 mm
19:52 35.9 °C 21.3 °C 1011.1 hPa West 4.8 km/h 11.3 km/h 43% 0 mm
19:57 35.8 °C 20.9 °C 1011.4 hPa West 8 km/h 11.3 km/h 42% 0 mm
20:02 35.8 °C 21.6 °C 1011.4 hPa WNW 4.8 km/h 8 km/h 44% 0 mm
20:07 35.6 °C 21.5 °C 1011.1 hPa West 9.7 km/h 11.3 km/h 44% 0 mm
20:12 35.5 °C 21.4 °C 1011.4 hPa West 6.4 km/h 8 km/h 44% 0 mm
20:17 35.3 °C 21.6 °C 1011.4 hPa WNW 8 km/h 8 km/h 45% 0 mm
20:22 35.2 °C 21.5 °C 1011.4 hPa WSW 1.6 km/h 6.4 km/h 45% 0 mm
20:27 35.1 °C 21.7 °C 1011.7 hPa WSW 3.2 km/h 6.4 km/h 46% 0 mm
20:32 34.9 °C 21.6 °C 1011.7 hPa West 3.2 km/h 4.8 km/h 46% 0 mm
20:37 34.8 °C 21.4 °C 1011.7 hPa West 3.2 km/h 4.8 km/h 46% 0 mm
20:42 34.6 °C 21.9 °C 1011.4 hPa West 1.6 km/h 3.2 km/h 48% 0 mm
20:47 34.3 °C 21.8 °C 1011.4 hPa West 1.6 km/h 3.2 km/h 48% 0 mm
20:52 34.1 °C 21.6 °C 1011.4 hPa WSW 3.2 km/h 6.4 km/h 48% 0 mm
20:57 33.8 °C 21.6 °C 1011.4 hPa West 1.6 km/h 4.8 km/h 49% 0 mm
21:02 33.6 °C 21.4 °C 1011.4 hPa WSW 3.2 km/h 3.2 km/h 49% 0 mm
21:07 33.3 °C 21.5 °C 1011.4 hPa SW 3.2 km/h 3.2 km/h 50% 0 mm
21:12 33 °C 21.5 °C 1011.4 hPa Calm   1.6 km/h 51% 0 mm
21:17 32.7 °C 21.2 °C 1011.4 hPa WSW 1.6 km/h 1.6 km/h 51% 0 mm
21:22 32.4 °C 21.3 °C 1011.4 hPa Calm   1.6 km/h 52% 0 mm
21:27 32.3 °C 21.2 °C 1011.1 hPa NW 1.6 km/h 3.2 km/h 52% 0 mm
21:32 32.2 °C 21.4 °C 1011.1 hPa NW 3.2 km/h 4.8 km/h 53% 0 mm
21:37 32 °C 21.2 °C 1011.1 hPa NW 1.6 km/h 6.4 km/h 53% 0 mm
21:42 31.8 °C 21.4 °C 1011.4 hPa Calm   3.2 km/h 54% 0 mm
21:47 31.7 °C 21.6 °C 1011.4 hPa Calm   1.6 km/h 55% 0 mm
21:52 31.4 °C 21.3 °C 1011.4 hPa WNW 1.6 km/h 3.2 km/h 55% 0 mm
21:58 31.3 °C 21.4 °C 1011.4 hPa Calm   1.6 km/h 56% 0 mm
22:03 31.1 °C 21.6 °C 1011.7 hPa WNW 1.6 km/h 1.6 km/h 57% 0 mm
22:08 30.8 °C 21.6 °C 1011.7 hPa SSE 1.6 km/h 3.2 km/h 58% 0 mm
22:13 30.6 °C 21.3 °C 1012.1 hPa SSE 1.6 km/h 3.2 km/h 58% 0 mm
22:18 30.2 °C 21.3 °C 1012.1 hPa South 1.6 km/h 1.6 km/h 59% 0 mm
22:23 29.8 °C 21.5 °C 1012.1 hPa SSE 3.2 km/h 3.2 km/h 61% 0 mm
22:28 29.6 °C 21.5 °C 1012.1 hPa SSE 3.2 km/h 3.2 km/h 62% 0 mm
22:33 29.4 °C 21.4 °C 1012.1 hPa SE 3.2 km/h 3.2 km/h 62% 0 mm
22:38 29.4 °C 21.4 °C 1012.4 hPa SSE 1.6 km/h 3.2 km/h 62% 0 mm
22:43 29.3 °C 21.3 °C 1012.4 hPa Calm   1.6 km/h 62% 0 mm
22:48 29.2 °C 21.4 °C 1012.4 hPa Calm     63% 0 mm
22:53 29 °C 21.2 °C 1012.8 hPa Calm     63% 0 mm
22:58 28.8 °C 21.3 °C 1012.8 hPa SSE 1.6 km/h 1.6 km/h 64% 0 mm
23:03 28.7 °C 21.5 °C 1012.8 hPa SSE 1.6 km/h 1.6 km/h 65% 0 mm
23:08 28.6 °C 21.3 °C 1012.8 hPa SSW 1.6 km/h 1.6 km/h 65% 0 mm
23:13 28.4 °C 21.5 °C 1013.1 hPa SSW 1.6 km/h 1.6 km/h 66% 0 mm
23:18 28.4 °C 21.4 °C 1013.1 hPa Calm   1.6 km/h 66% 0 mm
23:23 28.3 °C 21.4 °C 1012.8 hPa SW 1.6 km/h 1.6 km/h 66% 0 mm
23:28 28.4 °C 21.4 °C 1013.1 hPa SW 4.8 km/h 4.8 km/h 66% 0 mm
23:33 28.6 °C 21.6 °C 1012.8 hPa WSW 1.6 km/h 3.2 km/h 66% 0 mm
23:38 28.7 °C 21.7 °C 1012.8 hPa SW 3.2 km/h 3.2 km/h 66% 0 mm
23:43 28.7 °C 21.4 °C 1013.1 hPa WSW 1.6 km/h 3.2 km/h 65% 0 mm
23:48 28.7 °C 21.4 °C 1012.8 hPa SW 1.6 km/h 1.6 km/h 65% 0 mm
23:53 28.7 °C 21.4 °C 1012.8 hPa SW 1.6 km/h 1.6 km/h 65% 0 mm
23:58 28.5 °C 21.6 °C 1013.1 hPa Calm   1.6 km/h 66% 0 mm
Compliments of Weather Underground